Showing default

COSMOS 2093, 20738

Orbit data source: Space-Track

COSMOS 2093, 20738 is a payload satellite owned by UNKS (CIS) in LEO that was launched on Wed, 08 Aug 1990 UTC via a TSIKLON-3 launch vehicle from the Plesetsk Missile And Space Complex (PKMTR). Payload-class satellites include a variety of spacecraft equipped with specific instruments for various scientific and technological missions. These include communications satellites like Starlink; space stations such as the ISS; scientific satellites like the Hubble; Earth observation satellites from companies like Planet Labs, Umbra, and HawkEye 360; GPS; miniature CubeSats for education and research; and military/defense satellites.

Loading next visibility...
Identifier
20738, 1990-070D
Orbit
LEO
Last TLE update
13 hours ago
Origin
Manufacturer
NPO PM
Mission
Defense Communications
Bus & Motor
STRELA-3, Unknown motor
Mass
225 kg wet, 225 kg dry
Launch date (UTC)
1990-08-08 (35 years ago)
Launch vehicle
TSIKLON-3
Launch site
Plesetsk Missile And Space Complex (PKMTR)
Object type
Payload
Rocket body
Debris
Shape & HBR
Cyl, 1.6 m
Radar Cross Section
1.257 m², Large (>1 m²)

Expand to show TLE details & history

TLE from 13 hours ago
0 COSMOS 2093
1 20738U 90070D   25183.95599374  .00000029  00000-0  98599-4 0  9991
2 20738  82.5744 164.5845 0008714 172.4894 241.8781 12.64083115610256
Epoch: 2025-07-02T22:56Z
TLE epoch observation values (Epoch: 2025-07-02T22:56:37.859Z)
Latitude
53.70865°
Longitude
-90.63083°
Altitude
1,418.084 km
Speed
7.155 km/s
True Right ascension
11h 39m 01s
True Declination
53° 33' 30"
Sunlit
Object was in daylight at epoch
Visualization orbit readout
Latitude
32.67605°
Longitude
-96.3832°
Altitude
1,415.294 km
Speed
7.153 km/s
Apparent Right ascension
11h 32m 21s
Apparent Declination
0° 35' 13"
Sunlit
Object is in daylight
Visualization observer readout
Local Sidereal Time
23:54:17
Azimuth
8.404° NNE
Elevation
-49.189°
Doppler factor
1
Orbital elements
Apogee altitude
1,410.236 km
Perigee altitude
1,396.674 km
Semi-major axis
7,781.592 km
Eccentricity
0.00087
Inclination
82.5744°
RAAN
164.5845°
Arg. of periapsis
172.4894°
True anomaly
Unknown
Mean anomaly
241.8781°
Eccentric anomaly
Unknown
Mean motion
3.16184 °/min
Orbital period
113.86 mins
BSTAR
0.000098599
Loading maneuver chart data...
Loading SW <> Apogee altitude chart data...
Loading historical data...
Loading historical data...
Loading historical data...
Loading historical data...
Loading historical data...
Loading historical data...
Loading historical data...

COSMOS 2093 Visibility forecast

Observer location: undefined°, undefined°

Span
Click to sort rows by Start time (UTC) header in descending order
Start Az.
Max El. time (UTC)
Max El. Az.
Max El.
End time (UTC)
End Az.
7 mins2025-07-03 12:37:40.770Z309.116° NW2025-07-03 12:40:40.770Z286.016° WNW15.115°2025-07-03 12:44:40.770Z254.92° W
8 mins2025-07-03 21:36:40.770Z105.974° ESE2025-07-03 21:40:40.770Z74.118° E16.149°2025-07-03 21:44:40.770Z44.096° NE
15 mins2025-07-03 23:26:40.770Z186.27° SSW2025-07-03 23:33:40.770Z213.771° SW44.937°2025-07-03 23:41:40.770Z7.265° NNE
8 mins2025-07-04 01:26:40.770Z270.607° WNW2025-07-04 01:29:40.770Z294.857° NW16.538°2025-07-04 01:34:40.770Z333.495° NNW
13 mins2025-07-04 09:28:40.770Z15.149° NNE2025-07-04 09:34:40.770Z77.496° E31.019°2025-07-04 09:41:40.770Z137.423° SSE
14 mins2025-07-04 11:22:40.770Z336.981° NNW2025-07-04 11:29:40.770Z264.14° W35.06°2025-07-04 11:36:40.770Z203.888° SW
|